{"data":{"norad_id":67254,"intl_designator":"2025-313G","name":"AIST-2T 2","alt_names":[],"object_type":"PAYLOAD","status":"ACTIVE","operator":null,"country":"CIS","launch_date":"2025-12-28","launch_site_code":"VOSTO","launch_vehicle":null,"mission":null,"orbit_class":"UNKNOWN","rcs_meters":null,"size_class":null,"mass_kg":null,"dimensions":null,"purposes":[],"wikipedia_slug":null,"has_3d_model":false,"image_url":null,"decayed_at":null,"tle_current":{"epoch":"2026-09-20T19:25:12.774432Z","epoch_age_seconds":76372,"freshness":"FRESH","line1":"1 67254U 25313G   26263.80917563  .00016363  00000+0  19816-3 0  9992","line2":"2 67254  97.0740 341.1757 0004769 200.7748 159.3317 15.60723203 41525","mean_motion":15.60723203,"eccentricity":0.0004769,"inclination_deg":97.074,"raan_deg":341.1757,"arg_perigee_deg":200.7748,"mean_anomaly_deg":159.3317,"bstar":0.00019816,"rev_number":4152,"period_min":92.26491906009,"perigee_km":382.34123405613,"apogee_km":388.79245478294,"semimajor_km":6763.7038444195,"source":"CELESTRAK","updated_at":"2026-09-21T09:00:16.512349Z"}}}